Morgantown, WV

9:47 PM EST on February 13, 2016 (GMT -0500)
Morgantown Municipal-Hart

Weather History for KMGW - May, 2013

Change the Weather History Date:

Monday, May 13, 2013

  Actual Average Record
Temperature  
Mean Temperature 45 °F 60 °F  
Max Temperature 54 °F 71 °F 91 °F (2014)
Min Temperature 36 °F 49 °F 31 °F (1996)
Degree Days  
Heating Degree Days 20 6  
Month to date heating degree days 59 91  
Since 1 July heating degree days 4821 5074  
Cooling Degree Days 0 1  
Month to date cooling degree days 8 13  
Year to date cooling degree days 45 29  
Moisture  
Dew Point 29 °F    
Average Humidity 61    
Maximum Humidity 92    
Minimum Humidity 30    
Precipitation  
Precipitation T in 0.15 in 1.97 in (2011)
Month to date precipitation 1.48 1.84  
Year to date precipitation 10.25 14.42  
Sea Level Pressure  
Sea Level Pressure 30.14 in    
Wind  
Wind Speed 4 mph (WSW)    
Max Wind Speed 16 mph    
Max Gust Speed 26 mph    
Visibility 10 miles    
Events      
T = Trace of Precipitation, MM = Missing Value Source: NWS Daily Summary

Daily Weather History Graph

Daily Weather History Graph

Search for Another Location

Airport or City:

Trip Planner

Search our weather history database for the weather conditions in past years. The results will help you decide how hot, cold, wet, or windy it might be!

Date:

Astronomy

May. 13, 2013 Rise Set
Actual Time 6:06 AM EDT 8:25 PM EDT
Civil Twilight 5:36 AM EDT 8:55 PM EDT
Nautical Twilight 4:59 AM EDT 9:33 PM EDT
Astronomical Twilight 4:18 AM EDT 10:14 PM EDT
Moon 8:51 AM EDT (5/13) 11:33 PM EDT (5/13)
Length of Visible Light 15h 19m
Length of Day
14h 18m
Waxing Crescent, 12% of the Moon is Illuminated
May 13
Waxing Crescent
May 18
First Quarter
May 25
Full
May 31
Last Quarter
Jun 8
New

Hourly Weather History & Observations

Time (EDT) Temp. Windchill Dew Point Humidity Pressure Visibility Wind Dir Wind Speed Gust Speed Precip Events Conditions
12:53 AM 46.0 °F 43.1 °F 28.9 °F 51% 30.10 in 10.0 mi West 5.8 mph - N/A   Mostly Cloudy
1:53 AM 45.0 °F 42.6 °F 28.9 °F 53% 30.10 in 10.0 mi Variable 4.6 mph - N/A   Scattered Clouds
2:53 AM 43.0 °F - 28.9 °F 58% 30.10 in 10.0 mi Calm Calm - N/A   Scattered Clouds
3:53 AM 41.0 °F - 28.9 °F 62% 30.09 in 10.0 mi Calm Calm - N/A   Clear
4:53 AM 37.0 °F 34.5 °F 30.9 °F 79% 30.09 in 10.0 mi South 3.5 mph - N/A   Clear
5:53 AM 39.0 °F - 32.0 °F 76% 30.10 in 10.0 mi Calm Calm - N/A   Overcast
6:53 AM 39.0 °F - 33.1 °F 79% 30.12 in 10.0 mi Calm Calm - N/A   Overcast
7:53 AM 43.0 °F 40.3 °F 27.0 °F 53% 30.14 in 10.0 mi West 4.6 mph - N/A   Clear
8:53 AM 45.0 °F 41.2 °F 25.0 °F 46% 30.15 in 10.0 mi West 6.9 mph - N/A   Clear
9:53 AM 48.0 °F - 21.9 °F 36% 30.16 in 10.0 mi West 10.4 mph 16.1 mph N/A   Scattered Clouds
10:53 AM 48.9 °F - 21.9 °F 35% 30.16 in 10.0 mi West 9.2 mph 16.1 mph N/A   Mostly Cloudy
11:53 AM 50.0 °F - 21.9 °F 33% 30.16 in 10.0 mi West 8.1 mph 17.3 mph N/A   Overcast
12:53 PM 50.0 °F - 21.9 °F 33% 30.16 in 10.0 mi Variable 4.6 mph - N/A   Overcast
1:53 PM 51.1 °F - 21.9 °F 32% 30.15 in 10.0 mi WNW 10.4 mph 18.4 mph N/A   Mostly Cloudy
2:53 PM 51.1 °F - 23.0 °F 33% 30.15 in 10.0 mi West 11.5 mph 20.7 mph N/A   Mostly Cloudy
4:53 PM 46.0 °F 41.0 °F 32.0 °F 58% 30.17 in 10.0 mi West 10.4 mph 20.7 mph N/A   Mostly Cloudy
5:53 PM 48.9 °F - 30.9 °F 50% 30.15 in 10.0 mi SW 5.8 mph - N/A   Partly Cloudy
6:53 PM 46.9 °F - 34.0 °F 61% 30.15 in 10.0 mi South 4.6 mph - 0.00 in   Mostly Cloudy
8:53 PM 44.1 °F - 36.0 °F 73% 30.17 in 10.0 mi Calm Calm - N/A   Mostly Cloudy
9:53 PM 43.0 °F 41.3 °F 37.0 °F 80% 30.19 in 10.0 mi SSW 3.5 mph - N/A   Clear
10:53 PM 39.9 °F - 35.1 °F 83% 30.21 in 10.0 mi Calm Calm - N/A   Clear
11:53 PM 37.9 °F - 35.1 °F 89% 30.20 in 7.0 mi Calm Calm - N/A   Clear